This is the latest recevied weather packets stored in our database for station/object KC3ELT-10. If no packets are shown the sender has not sent any weather packets the latest 10 day(s).
| Time | Temp. | Humidity | Pressure | Rain* | Wind** | Luminosity | Snow |
|---|---|---|---|---|---|---|---|
| 1777576378 | 12.22° C | 70% | 1001.9 hPa | 0 mm | 0.89 m/s, 345° | - | - |
| 1777576079 | 12.78° C | 70% | 1001.9 hPa | 0 mm | 1.79 m/s, 2° | - | - |
| 1777575779 | 12.78° C | 69% | 1001.9 hPa | 0 mm | 1.79 m/s, 4° | - | - |
| 1777575478 | 12.78° C | 70% | 1001.8 hPa | 0 mm | 0.45 m/s, 345° | - | - |
| 1777575179 | 12.78° C | 70% | 1001.8 hPa | 0 mm | 0.89 m/s, 297° | - | - |
| 1777574879 | 12.78° C | 70% | 1001.8 hPa | 0 mm | 0.45 m/s, 317° | - | - |
| 1777574578 | 12.78° C | 70% | 1001.8 hPa | 0 mm | 1.34 m/s, 7° | - | - |
| 1777574279 | 12.78° C | 71% | 1001.8 hPa | 0 mm | 1.34 m/s, 32° | - | - |
| 1777573978 | 12.78° C | 71% | 1001.8 hPa | 0 mm | 1.34 m/s, 349° | - | - |
| 1777573678 | 12.78° C | 71% | 1002 hPa | 0 mm | 0.45 m/s, 330° | - | - |
| 1777573378 | 12.22° C | 72% | 1002 hPa | 0 mm | 2.24 m/s, 316° | - | - |
| 1777573078 | 12.22° C | 71% | 1002 hPa | 0 mm | 2.68 m/s, 316° | - | - |
| 1777572779 | 12.22° C | 71% | 1002 hPa | 0 mm | 2.68 m/s, 6° | - | - |
| 1777572479 | 12.22° C | 71% | 1002 hPa | 0 mm | 4.02 m/s, 13° | - | - |
| 1777572179 | 12.22° C | 71% | 1002 hPa | 0 mm | 0.89 m/s, 359° | - | - |
| 1777571879 | 12.22° C | 73% | 1002.1 hPa | 0 mm | 1.34 m/s, 341° | - | - |
| 1777571579 | 12.22° C | 73% | 1002.1 hPa | 0 mm | 0.45 m/s, 45° | - | - |
| 1777571279 | 12.22° C | 75% | 1002.1 hPa | 0 mm | 1.34 m/s, 359° | - | - |
| 1777570979 | 12.22° C | 74% | 1001.7 hPa | 0 mm | 2.24 m/s, 356° | - | - |
| 1777570678 | 12.22° C | 74% | 1001.7 hPa | 0 mm | 1.34 m/s, 351° | - | - |
| 1777570379 | 12.22° C | 74% | 1001.7 hPa | 0 mm | 0.89 m/s, 356° | - | - |
| 1777570079 | 12.78° C | 75% | 1001.8 hPa | 0 mm | 2.24 m/s, 317° | - | - |
| 1777569779 | 12.22° C | 75% | 1001.8 hPa | 0 mm | 1.34 m/s, 338° | - | - |
| 1777569479 | 12.22° C | 76% | 1001.8 hPa | 0 mm | 0.45 m/s, 342° | - | - |
| 1777569178 | 12.22° C | 76% | 1001.8 hPa | 0 mm | 3.13 m/s, 348° | - | - |
* Rain latest hour (hover to see other rain measurements)
** Current wind speed in m/s (hover to see current wind gust speed)